Iasi, Romania

10:11 AM EEST on October 22, 2017 (GMT +0300)
Iasi

Weather History for LRIA - January, 2013

Change the Weather History Date:

Wednesday, January 30, 2013

  Actual Average Record
Temperature  
Mean Temperature 21 °F -  
Max Temperature 28 °F 36 °F - ()
Min Temperature 14 °F 23 °F - ()
Degree Days  
Heating Degree Days 44    
Moisture  
Dew Point 20 °F    
Average Humidity 92    
Maximum Humidity 100    
Minimum Humidity 80    
Precipitation  
Precipitation 0.00 in 0.04 in - ()
Sea Level Pressure  
Sea Level Pressure 29.99 in    
Wind  
Wind Speed 7 mph ()    
Max Wind Speed 16 mph    
Max Gust Speed -    
Visibility 1.7 miles    
Events Fog , Snow    
T = Trace of Precipitation, MM = Missing Value Source: Averaged Metar Reports

Daily Weather History Graph

Daily Weather History Graph

Search for Another Location

Airport or City:

Trip Planner

Search our weather history database for the weather conditions in past years. The results will help you decide how hot, cold, wet, or windy it might be!

Date:

Astronomy

Jan. 30, 2013 Rise Set
Actual Time 7:37 AM EET 5:08 PM EET
Civil Twilight 7:04 AM EET 5:41 PM EET
Nautical Twilight 6:27 AM EET 6:18 PM EET
Astronomical Twilight 5:51 AM EET 6:54 PM EET
Moon 9:05 PM EET (1/30) 8:38 AM EET (1/30)
Length of Visible Light 10h 37m
Length of Day
9h 31m
Waning Gibbous, 89% of the Moon is Illuminated
Jan 30
Waning Gibbous
Feb 3
Last Quarter
Feb 10
New
Feb 17
First Quarter
Feb 25
Full

Hourly Weather History & Observations

Time (EET) Temp. Windchill Dew Point Humidity Pressure Visibility Wind Dir Wind Speed Gust Speed Precip Events Conditions
12:00 AM 19 °F - 17 °F 88% 30.03 in 2 mi ENE 4.5 mph - -   Mist
12:00 AM 17.6 °F 5.0 °F 15.8 °F 93% 30.01 in 1.6 mi East 11.5 mph - N/A   Mist
1:00 AM 18 °F - 17 °F 92% 30.02 in 2 mi East 4.5 mph - -   Mist
1:00 AM 19.4 °F 7.2 °F 17.6 °F 93% 29.98 in 1.4 mi East 11.5 mph - N/A   Mist
2:00 AM 20 °F - 19 °F 93% 30.01 in 2 mi ENE 4.5 mph - -   Mist
2:00 AM 19.4 °F 7.2 °F 17.6 °F 93% 29.98 in 1.5 mi East 11.5 mph - N/A   Mostly Cloudy
3:00 AM 20 °F - 19 °F 92% 30.01 in 2 mi ENE 4.5 mph - -   Mist
3:00 AM 19.4 °F 7.2 °F 17.6 °F 93% 29.95 in 1.3 mi East 11.5 mph - N/A   Mostly Cloudy
4:00 AM 16 °F - 16 °F 98% 30.00 in 2 mi East 4.5 mph - -   Mist
4:00 AM 17.6 °F 5.0 °F 15.8 °F 93% 29.95 in 1.2 mi ENE 11.5 mph - N/A   Scattered Clouds
5:00 AM 17 °F - 17 °F 98% 30.00 in 2 mi ENE 4.5 mph - -   Mist
5:00 AM 17.6 °F 5.0 °F 15.8 °F 93% 29.95 in 0.9 mi East 11.5 mph - N/A   Mostly Cloudy
5:30 AM 17.6 °F 5.0 °F 17.6 °F 100% 29.95 in 0.9 mi ENE 11.5 mph - N/A   Mist
6:00 AM 18 °F - 18 °F 99% 30.01 in 2 mi East 4.5 mph - -   Mist
6:00 AM 17.6 °F 6.4 °F 17.6 °F 100% 29.98 in 0.9 mi East 9.2 mph - N/A   Mist
6:30 AM 17.6 °F 6.4 °F 15.8 °F 93% 29.98 in 0.9 mi East 9.2 mph - N/A   Mist
7:00 AM 17 °F - 17 °F 98% 30.02 in 2 mi East 4.5 mph - -   Mist
7:00 AM 17.6 °F 8.2 °F 15.8 °F 93% 29.98 in 0.3 mi East 6.9 mph - N/A   Unknown
7:30 AM 17.6 °F 8.2 °F 15.8 °F 93% 29.98 in 0.1 mi East 6.9 mph - N/A Fog Light Freezing Fog
8:00 AM 17 °F - 17 °F 98% 30.03 in 0 mi ENE 2.2 mph - - Fog Partial Fog
8:00 AM 17.6 °F 8.2 °F 15.8 °F 93% 29.98 in 0.2 mi ENE 6.9 mph - N/A Fog Light Freezing Fog
8:30 AM 19.4 °F 8.6 °F 17.6 °F 93% 30.01 in 0.4 mi East 9.2 mph - N/A Fog , Snow Light Snow
9:00 AM 19 °F - 18 °F 97% 30.04 in 1 mi East 4.5 mph - - Snow Light Snow
9:00 AM 19.4 °F 10.4 °F 17.6 °F 93% 30.01 in 0.7 mi East 6.9 mph - N/A   Scattered Clouds
10:00 AM 21 °F - 21 °F 98% 30.04 in 1 mi East 4.5 mph - - Snow Light Snow
10:00 AM 21.2 °F 10.9 °F 19.4 °F 93% 30.01 in 0.7 mi East 9.2 mph - N/A Snow Light Snow
10:30 AM 21.2 °F 12.6 °F 19.4 °F 93% 30.01 in 1.1 mi East 6.9 mph - N/A   Overcast
11:00 AM 22 °F - 21 °F 95% 30.05 in 1 mi East 4.5 mph - -   Mist
11:00 AM 21.2 °F 14.9 °F 21.2 °F 100% 30.01 in 1.2 mi East 4.6 mph - N/A   Mostly Cloudy
11:30 AM 21.2 °F 12.6 °F 21.2 °F 100% 30.01 in 1.2 mi East 6.9 mph - N/A   Mostly Cloudy
12:00 PM 23 °F - 22 °F 94% 30.05 in 1 mi East 4.5 mph - -   Mist
12:00 PM 23.0 °F 17.0 °F 21.2 °F 93% 30.01 in 1.2 mi East 4.6 mph - N/A   Mostly Cloudy
12:30 PM 23.0 °F 14.7 °F 23.0 °F 100% 30.01 in 1.2 mi East 6.9 mph - N/A   Mostly Cloudy
1:00 PM 26 °F - 23 °F 85% 30.04 in 1 mi East 4.5 mph - -   Mist
1:00 PM 24.8 °F 19.1 °F 23.0 °F 93% 30.01 in 1.6 mi East 4.6 mph - N/A   Mostly Cloudy
1:30 PM 24.8 °F - 23.0 °F 93% 30.01 in 1.6 mi East 2.3 mph - N/A   Mostly Cloudy
2:00 PM 26 °F - 24 °F 87% 30.03 in 1 mi East 4.5 mph - -   Mist
2:00 PM 24.8 °F 19.1 °F 24.8 °F 100% 29.98 in 1.9 mi East 4.6 mph - N/A   Overcast
2:30 PM 24.8 °F 19.1 °F 24.8 °F 100% 29.98 in 1.9 mi East 4.6 mph - N/A   Mostly Cloudy
3:00 PM 27 °F - 24 °F 83% 30.02 in 1 mi East 4.5 mph - -   Mist
3:00 PM 26.6 °F 17.5 °F 24.8 °F 93% 29.98 in 1.9 mi East 9.2 mph - N/A   Mostly Cloudy
3:30 PM 26.6 °F 17.5 °F 24.8 °F 93% 29.98 in 1.9 mi East 9.2 mph - N/A   Mostly Cloudy
4:00 PM 28 °F - 25 °F 84% 30.01 in 1 mi ENE 4.5 mph - -   Mist
4:00 PM 26.6 °F 16.2 °F 24.8 °F 93% 29.98 in 1.9 mi East 11.5 mph - N/A   Mostly Cloudy
4:30 PM 26.6 °F 16.2 °F 24.8 °F 93% 29.98 in 1.9 mi East 11.5 mph - N/A   Overcast
5:00 PM 28 °F - 25 °F 84% 30.00 in 2 mi East 4.5 mph - -   Mist
5:00 PM 26.6 °F 16.2 °F 23.0 °F 86% 29.98 in 2.2 mi East 11.5 mph - N/A   Overcast
5:30 PM 26.6 °F 16.2 °F 21.2 °F 80% 29.98 in 2.5 mi East 11.5 mph - N/A   Mostly Cloudy
6:00 PM 26 °F - 23 °F 83% 30.00 in 2 mi ENE 4.5 mph - -   Mist
6:00 PM 24.8 °F 14.0 °F 21.2 °F 86% 29.98 in 2.2 mi East 11.5 mph - N/A   Scattered Clouds
6:30 PM 23.0 °F 11.7 °F 19.4 °F 86% 29.95 in 1.9 mi East 11.5 mph - N/A   Mist
7:00 PM 22 °F - 20 °F 90% 30.00 in 6 mi East 4.5 mph - -   Scattered Clouds
7:00 PM 23.0 °F 10.6 °F 19.4 °F 86% 29.95 in 1.9 mi East 13.8 mph - N/A   Mist
7:30 PM 23.0 °F 10.6 °F 19.4 °F 86% 29.95 in 1.9 mi East 13.8 mph - N/A   Mist
8:00 PM 22 °F - 20 °F 90% 29.99 in 6 mi ENE 4.5 mph - -  
8:30 PM 21.2 °F 7.3 °F 19.4 °F 93% 29.92 in 1.9 mi East 16.1 mph - N/A   Mist
9:00 PM 22 °F - 21 °F 92% 29.97 in 6 mi East 4.5 mph - -  
9:00 PM 21.2 °F 7.3 °F 19.4 °F 93% 29.92 in 1.8 mi East 16.1 mph - N/A   Mist
10:00 PM 22 °F - 20 °F 89% 29.96 in 2 mi East 4.5 mph - -   Mist
10:00 PM 21.2 °F 7.3 °F 19.4 °F 93% 29.89 in 1.7 mi East 16.1 mph - N/A   Mist
11:00 PM 24 °F - 22 °F 90% 29.93 in 2 mi East 4.5 mph - -   Mist
11:00 PM 21.2 °F 7.3 °F 19.4 °F 93% 29.89 in 1.4 mi East 16.1 mph - N/A   Mist